| time (UTC) | temp F | wind direction | speed MPH | gust MPH | rain 1hr in | rain 24hr in | rain mn in | humidity % | barometer mb |
| 20260502233050 | 45 | 263 | 8.0 | 0.0 | 0.00 | 0.00 | 0.00 | 42 | 987.6 |
| 20260502231538 | 46 | 265 | 9.0 | 0.0 | 0.00 | 0.00 | 0.00 | 42 | 987.6 |
| 20260502230104 | 46 | 269 | 10.0 | 0.0 | 0.00 | 0.00 | 0.00 | 42 | 987.6 |
| 20260502224538 | 46 | 271 | 11.0 | 0.0 | 0.00 | 0.00 | 0.00 | 39 | 988.1 |
| 20260502223056 | 47 | 269 | 12.0 | 0.0 | 0.00 | 0.00 | 0.00 | 40 | 988.7 |
| 20260502221538 | 47 | 270 | 12.0 | 0.0 | 0.00 | 0.00 | 0.00 | 40 | 988.7 |
| 20260502220104 | 47 | 270 | 12.0 | 0.0 | 0.00 | 0.00 | 0.00 | 40 | 988.7 |
| 20260502214538 | 47 | 272 | 12.0 | 0.0 | 0.00 | 0.00 | 0.00 | 42 | 988.8 |
| 20260502213056 | 48 | 270 | 11.0 | 0.0 | 0.00 | 0.00 | 0.00 | 39 | 988.5 |
| 20260502211538 | 48 | 271 | 10.0 | 0.0 | 0.00 | 0.00 | 0.00 | 39 | 988.5 |
| 20260502210107 | 48 | 272 | 10.0 | 0.0 | 0.00 | 0.00 | 0.00 | 39 | 988.5 |
| 20260502204538 | 48 | 271 | 10.0 | 0.0 | 0.00 | 0.00 | 0.00 | 41 | 988.8 |
| 20260502203056 | 48 | 271 | 11.0 | 0.0 | 0.00 | 0.00 | 0.00 | 39 | 989.3 |
| 20260502201538 | 47 | 272 | 11.0 | 0.0 | 0.00 | 0.00 | 0.00 | 39 | 989.3 |
| 20260502200104 | 47 | 274 | 11.0 | 0.0 | 0.00 | 0.00 | 0.00 | 39 | 989.3 |
| 20260502194538 | 47 | 274 | 11.0 | 0.0 | 0.00 | 0.00 | 0.00 | 46 | 989.5 |
| 20260502193051 | 46 | 276 | 11.0 | 0.0 | 0.00 | 0.00 | 0.00 | 46 | 989.5 |
| 20260502191538 | 46 | 279 | 11.0 | 0.0 | 0.00 | 0.00 | 0.00 | 46 | 989.5 |
| 20260502190104 | 46 | 278 | 11.0 | 0.0 | 0.00 | 0.00 | 0.00 | 46 | 989.5 |
| 20260502184538 | 45 | 278 | 11.0 | 0.0 | 0.00 | 0.00 | 0.00 | 45 | 989.5 |
| 20260502183057 | 46 | 273 | 10.0 | 0.0 | 0.00 | 0.00 | 0.00 | 43 | 989.5 |
| 20260502181537 | 46 | 284 | 9.0 | 0.0 | 0.00 | 0.00 | 0.00 | 43 | 989.5 |
| 20260502180109 | 46 | 288 | 9.0 | 0.0 | 0.00 | 0.00 | 0.00 | 43 | 989.5 |
| 20260502163058 | 45 | 282 | 8.0 | 0.0 | 0.00 | 0.00 | 0.00 | 41 | 989.1 |
| 20260502161537 | 44 | 282 | 8.0 | 0.0 | 0.00 | 0.00 | 0.00 | 41 | 989.1 |
| 20260502160107 | 44 | 284 | 8.0 | 0.0 | 0.00 | 0.00 | 0.00 | 41 | 989.1 |
| 20260502151538 | 42 | 287 | 6.0 | 0.0 | 0.00 | 0.00 | 0.00 | 50 | 989.3 |
| 20260502150109 | 42 | 288 | 6.0 | 0.0 | 0.00 | 0.00 | 0.00 | 50 | 989.3 |
| 20260502140111 | 39 | 320 | 6.0 | 0.0 | 0.00 | 0.00 | 0.00 | 58 | 989.9 |
| 20260502130105 | 36 | 331 | 5.0 | 0.0 | 0.00 | 0.00 | 0.00 | 74 | 989.6 |
| 20260502123055 | 35 | 322 | 5.0 | 0.0 | 0.00 | 0.00 | 0.00 | 83 | 989.7 |
| 20260502121538 | 34 | 325 | 5.0 | 0.0 | 0.00 | 0.00 | 0.00 | 83 | 989.7 |
| 20260502120114 | 33 | 317 | 5.0 | 0.0 | 0.00 | 0.00 | 0.00 | 83 | 989.7 |
| 20260502114538 | 32 | 311 | 5.0 | 0.0 | 0.00 | 0.00 | 0.00 | 85 | 989.4 |
| 20260502113100 | 32 | 300 | 3.0 | 0.0 | 0.00 | 0.00 | 0.00 | 87 | 989.4 |
| 20260502111538 | 31 | 291 | 3.0 | 0.0 | 0.00 | 0.00 | 0.00 | 87 | 989.4 |
| 20260502110107 | 31 | 292 | 3.0 | 0.0 | 0.00 | 0.00 | 0.00 | 87 | 989.4 |
| 20260502104537 | 31 | 281 | 3.0 | 0.0 | 0.00 | 0.00 | 0.00 | 86 | 989.2 |
| 20260502103056 | 31 | 286 | 3.0 | 0.0 | 0.00 | 0.00 | 0.00 | 89 | 989.5 |
| 20260502101538 | 31 | 284 | 2.0 | 0.0 | 0.00 | 0.00 | 0.00 | 89 | 989.5 |
| 20260502100106 | 31 | 290 | 3.0 | 0.0 | 0.00 | 0.00 | 0.00 | 89 | 989.5 |
| 20260502090106 | 31 | 299 | 4.0 | 0.0 | 0.00 | 0.00 | 0.00 | 88 | 989.0 |
| 20260502080108 | 32 | 298 | 4.0 | 0.0 | 0.00 | 0.00 | 0.00 | 82 | 988.8 |
| 20260502070105 | 32 | 300 | 4.0 | 0.0 | 0.00 | 0.00 | 0.00 | 81 | 988.2 |
| 20260502064538 | 32 | 297 | 4.0 | 0.0 | 0.00 | 0.00 | 0.00 | 79 | 989.3 |
| 20260502063057 | 33 | 294 | 4.0 | 0.0 | 0.00 | 0.00 | 0.00 | 79 | 989.2 |
| 20260502061537 | 33 | 293 | 5.0 | 0.0 | 0.00 | 0.00 | 0.00 | 79 | 989.2 |
| 20260502060116 | 33 | 297 | 4.0 | 0.0 | 0.00 | 0.00 | 0.00 | 79 | 989.2 |
| 20260502054538 | 33 | 301 | 4.0 | 0.0 | 0.00 | 0.00 | 0.00 | 75 | 988.4 |
| 20260502053057 | 34 | 308 | 5.0 | 0.0 | 0.00 | 0.00 | 0.00 | 80 | 988.8 |
| 20260502051537 | 34 | 305 | 5.0 | 0.0 | 0.00 | 0.00 | 0.00 | 80 | 988.8 |
| 20260502050108 | 34 | 310 | 5.0 | 0.0 | 0.00 | 0.00 | 0.00 | 80 | 988.8 |
| 20260502044538 | 34 | 307 | 4.0 | 0.0 | 0.00 | 0.00 | 0.00 | 72 | 988.3 |
| 20260502043055 | 35 | 323 | 4.0 | 0.0 | 0.00 | 0.00 | 0.00 | 73 | 988.5 |
| 20260502041537 | 34 | 333 | 5.0 | 0.0 | 0.00 | 0.00 | 0.00 | 73 | 988.5 |
| 20260502040106 | 35 | 330 | 7.0 | 0.0 | 0.00 | 0.00 | 0.00 | 73 | 988.5 |
| 20260502034537 | 35 | 326 | 8.0 | 0.0 | 0.00 | 0.00 | 0.00 | 69 | 988.0 |
| 20260502033057 | 35 | 327 | 6.0 | 0.0 | 0.00 | 0.00 | 0.00 | 70 | 987.5 |
| 20260502031537 | 36 | 318 | 6.0 | 0.0 | 0.00 | 0.00 | 0.00 | 70 | 987.5 |
| 20260502030105 | 36 | 322 | 6.0 | 0.0 | 0.00 | 0.00 | 0.00 | 70 | 987.5 |
| 20260502024537 | 37 | 319 | 6.0 | 0.0 | 0.00 | 0.00 | 0.00 | 64 | 987.0 |
| 20260502023055 | 37 | 309 | 8.0 | 0.0 | 0.00 | 0.00 | 0.00 | 69 | 987.9 |
| 20260502021536 | 37 | 302 | 8.0 | 0.0 | 0.00 | 0.00 | 0.00 | 69 | 987.8 |
| 20260502014536 | 37 | 283 | 7.0 | 0.0 | 0.00 | 0.00 | 0.00 | 66 | 988.0 |
| 20260502013053 | 38 | 286 | 7.0 | 0.0 | 0.00 | 0.00 | 0.00 | 66 | 988.0 |
| 20260502011536 | 38 | 284 | 9.0 | 0.0 | 0.00 | 0.00 | 0.00 | 66 | 987.9 |
| 20260502010058 | 39 | 283 | 9.0 | 0.0 | 0.00 | 0.00 | 0.00 | 66 | 987.9 |
| 20260502004536 | 39 | 283 | 9.0 | 0.0 | 0.00 | 0.00 | 0.00 | 58 | 988.4 |
| 20260502003054 | 40 | 309 | 9.0 | 0.0 | 0.00 | 0.00 | 0.00 | 60 | 988.9 |
| 20260502001536 | 41 | 306 | 10.0 | 0.0 | 0.00 | 0.00 | 0.00 | 60 | 988.9 |
| 20260502000111 | 41 | 302 | 11.0 | 0.0 | 0.00 | 0.00 | 0.00 | 60 | 988.9 |
| 20260501234537 | 42 | 291 | 10.0 | 0.0 | 0.00 | 0.00 | 0.00 | 56 | 987.3 |